Tracking 30995 objects as of 5-Jul-2025
HD Live streaming from Space Station
objects crossing your sky now

STARLINK-32026

Track STARLINK-32026 now!
10-day predictions
STARLINK-32026 is classified as:


NORAD ID: 60098
Int'l Code: 2024-117H
Perigee: 481.5 km
Apogee: 483.3 km
Inclination: 53.2 °
Period: 94.1 minutes
Semi major axis: 6853 km
RCS: Unknown
Launch date: June 23, 2024
Source: United States (US)
Launch site: AIR FORCE EASTERN TEST RANGE (AFETR)
Your satellite tracking list
COSMOS 1823 DEB
Track 1 satellite(s)




NASA's NSSDC Master Catalog

Two Line Element Set (TLE):
1 60098U 24117H   25186.19133151 -.00000022  00000-0  11401-4 0  9990
2 60098  53.1594 106.7089 0001263  78.2168 281.8974 15.30189797 58997
Source of the keplerian elements: AFSPC